Tracking 33200 objects as of 17-Feb-2026
HD Live streaming from Space Station
objects crossing your sky now

COSMOS 681

Track COSMOS 681 now!
10-day predictions
COSMOS 681 is classified as:


NORAD ID: 7439
Int'l Code: 1974-072E
Perigee: 1,471.9 km
Apogee: 1,479.2 km
Inclination: 74.0 °
Period: 115.3 minutes
Semi major axis: 7846 km
RCS: 0.6868 m2 (medium)
Launch date: September 19, 1974
Source: Commonwealth of Independent States (former USSR) (CIS)
Launch site: PLESETSK MISSILE AND SPACE COMPLEX (PKMTR)
Your satellite tracking list
Your tracking list is empty




NASA's NSSDC Master Catalog

Two Line Element Set (TLE):
1 07439U 74072E   26048.54032397 -.00000024  00000-0 -51594-4 0  9992
2 07439  74.0358 174.0855 0004629 220.0988 216.8343 12.49070913344387
Source of the keplerian elements: AFSPC